| time (UTC) | temp F | wind direction | speed knots | gust knots | rain 1hr in | rain 24hr in | rain mn in | humidity % | barometer mb |
| 20260507174004 | 52 | 199 | 6.1 | 7.8 | 0.00 | 0.01 | 0.00 | 79 | 1020.7 |
| 20260507173004 | 52 | 204 | 6.1 | 7.8 | 0.00 | 0.01 | 0.00 | 79 | 1020.7 |
| 20260507172004 | 52 | 214 | 7.0 | 7.8 | 0.00 | 0.01 | 0.00 | 75 | 1020.7 |
| 20260507171004 | 52 | 206 | 5.2 | 7.0 | 0.00 | 0.01 | 0.00 | 81 | 1020.8 |
| 20260507165004 | 52 | 221 | 4.3 | 7.8 | 0.00 | 0.01 | 0.00 | 81 | 1020.8 |
| 20260507164004 | 53 | 226 | 3.5 | 9.6 | 0.00 | 0.01 | 0.00 | 79 | 1021.0 |
| 20260507163004 | 52 | 219 | 6.1 | 7.8 | 0.00 | 0.01 | 0.00 | 76 | 1021.2 |
| 20260507161005 | 51 | 199 | 4.3 | 7.8 | 0.00 | 0.01 | 0.00 | 96 | 1021.3 |
| 20260507160005 | 50 | 199 | 5.2 | 7.0 | 0.00 | 0.01 | 0.00 | 97 | 1021.3 |
| 20260507154005 | 51 | 221 | 4.3 | 7.0 | 0.00 | 0.02 | 0.00 | 97 | 1021.2 |
| 20260507153005 | 51 | 214 | 4.3 | 7.0 | 0.00 | 0.02 | 0.00 | 95 | 1021.2 |
| 20260507150006 | 51 | 228 | 6.1 | 11.3 | 0.00 | 0.05 | 0.00 | 97 | 1021.3 |
| 20260507145005 | 51 | 211 | 7.0 | 9.6 | 0.00 | 0.06 | 0.00 | 96 | 1021.3 |
| 20260507144005 | 51 | 222 | 3.5 | 9.6 | 0.00 | 0.08 | 0.00 | 98 | 1021.5 |
| 20260507143005 | 51 | 213 | 3.5 | 12.2 | 0.00 | 0.09 | 0.00 | 95 | 1021.4 |
| 20260507141007 | 53 | 248 | 4.3 | 7.0 | 0.00 | 0.09 | 0.00 | 93 | 1021.3 |
| 20260507140006 | 53 | 239 | 4.3 | 6.1 | 0.00 | 0.09 | 0.00 | 95 | 1021.6 |
| 20260507135005 | 55 | 242 | 4.3 | 6.1 | 0.00 | 0.11 | 0.00 | 90 | 1021.8 |
| 20260507133005 | 54 | 269 | 2.6 | 6.1 | 0.00 | 0.13 | 0.00 | 90 | 1021.7 |
| 20260507132005 | 55 | 259 | 2.6 | 7.0 | 0.00 | 0.13 | 0.00 | 86 | 1021.9 |
| 20260507131005 | 55 | 261 | 3.5 | 9.6 | 0.00 | 0.13 | 0.00 | 82 | 1022.1 |
| 20260507130005 | 55 | 252 | 3.5 | 7.0 | 0.00 | 0.13 | 0.00 | 78 | 1021.8 |
| 20260507125006 | 56 | 235 | 3.5 | 6.1 | 0.00 | 0.14 | 0.00 | 78 | 1022.1 |
| 20260507124005 | 56 | 270 | 0.9 | 6.1 | 0.00 | 0.14 | 0.00 | 76 | 1022.2 |
| 20260507123005 | 56 | 231 | 1.7 | 7.0 | 0.00 | 0.14 | 0.00 | 85 | 1022.2 |
| 20260507122005 | 56 | 269 | 2.6 | 6.1 | 0.00 | 0.14 | 0.00 | 81 | 1022.2 |
| 20260507121005 | 55 | 269 | 3.5 | 7.0 | 0.00 | 0.14 | 0.00 | 79 | 1022.3 |
| 20260507115005 | 56 | 269 | 2.6 | 6.1 | 0.00 | 0.15 | 0.00 | 81 | 1022.3 |
| 20260507113005 | 57 | 244 | 3.5 | 6.1 | 0.00 | 0.19 | 0.00 | 82 | 1022.5 |
| 20260507112005 | 56 | 260 | 2.6 | 7.0 | 0.00 | 0.19 | 0.00 | 80 | 1022.6 |
| 20260507111005 | 57 | 265 | 1.7 | 6.1 | 0.00 | 0.19 | 0.00 | 83 | 1022.5 |
| 20260507105005 | 56 | 203 | 0.9 | 6.1 | 0.00 | 0.19 | 0.00 | 86 | 1022.7 |
| 20260507104005 | 56 | 231 | 2.6 | 7.8 | 0.00 | 0.19 | 0.00 | 82 | 1022.6 |
| 20260507102007 | 54 | 219 | 4.3 | 7.8 | 0.00 | 0.19 | 0.00 | 90 | 1022.8 |
| 20260507100005 | 53 | 253 | 2.6 | 7.0 | 0.00 | 0.19 | 0.00 | 91 | 1022.5 |
| 20260507095005 | 53 | 227 | 1.7 | 7.0 | 0.00 | 0.19 | 0.00 | 90 | 1022.6 |
| 20260507094005 | 54 | 224 | 3.5 | 7.8 | 0.00 | 0.19 | 0.00 | 85 | 1022.6 |
| 20260507092005 | 51 | 206 | 3.5 | 7.8 | 0.00 | 0.19 | 0.00 | 96 | 1022.7 |
| 20260507091005 | 52 | 206 | 3.5 | 7.8 | 0.00 | 0.19 | 0.00 | 95 | 1022.5 |
| 20260507090006 | 51 | 205 | 4.3 | 7.8 | 0.00 | 0.19 | 0.00 | 97 | 1022.7 |
| 20260507085005 | 51 | 203 | 5.2 | 7.8 | 0.00 | 0.19 | 0.00 | 97 | 1022.5 |
| 20260507083005 | 52 | 202 | 5.2 | 7.8 | 0.00 | 0.19 | 0.00 | 95 | 1022.5 |
| 20260507081005 | 53 | 211 | 3.5 | 7.0 | 0.00 | 0.19 | 0.00 | 94 | 1022.3 |
| 20260507080005 | 53 | 192 | 3.5 | 7.0 | 0.00 | 0.19 | 0.00 | 94 | 1022.3 |
| 20260507075005 | 53 | 210 | 1.7 | 7.0 | 0.00 | 0.19 | 0.00 | 94 | 1022.4 |
| 20260507074004 | 52 | 210 | 4.3 | 7.0 | 0.00 | 0.19 | 0.00 | 93 | 1022.3 |
| 20260507073005 | 51 | 210 | 2.6 | 7.0 | 0.00 | 0.19 | 0.00 | 96 | 1022.4 |
| 20260507072005 | 51 | 187 | 5.2 | 7.8 | 0.00 | 0.19 | 0.00 | 94 | 1022.5 |
| 20260507071005 | 51 | 185 | 4.3 | 7.0 | 0.00 | 0.19 | 0.00 | 96 | 1022.3 |
| 20260507070009 | 51 | 203 | 4.3 | 7.8 | 0.00 | 0.19 | 0.00 | 98 | 1022.2 |
| 20260507065005 | 51 | 190 | 6.1 | 9.6 | 0.00 | 0.19 | 0.00 | 95 | 1022.0 |
| 20260507064005 | 51 | 199 | 7.0 | 7.8 | 0.00 | 0.19 | 0.00 | 95 | 1021.7 |
| 20260507063005 | 51 | 195 | 7.0 | 7.8 | 0.00 | 0.19 | 0.00 | 94 | 1022.0 |
| 20260507062004 | 51 | 176 | 6.1 | 7.8 | 0.00 | 0.19 | 0.00 | 93 | 1021.9 |
| 20260507061004 | 51 | 191 | 6.1 | 7.8 | 0.00 | 0.19 | 0.00 | 93 | 1021.7 |
| 20260507055005 | 51 | 195 | 4.3 | 7.8 | 0.00 | 0.19 | 0.00 | 94 | 1021.9 |
| 20260507054005 | 51 | 200 | 7.0 | 7.8 | 0.00 | 0.19 | 0.00 | 93 | 1021.8 |
| 20260507053005 | 51 | 207 | 6.1 | 7.0 | 0.00 | 0.19 | 0.00 | 93 | 1021.6 |
| 20260507052005 | 51 | 190 | 7.0 | 7.8 | 0.00 | 0.19 | 0.00 | 94 | 1021.8 |
| 20260507051005 | 51 | 189 | 7.0 | 7.8 | 0.00 | 0.19 | 0.00 | 93 | 1021.6 |
| 20260507050006 | 50 | 188 | 7.0 | 7.8 | 0.00 | 0.19 | 0.00 | 94 | 1021.7 |
| 20260507045005 | 50 | 181 | 4.3 | 6.1 | 0.00 | 0.19 | 0.00 | 95 | 1021.9 |
| 20260507044004 | 50 | 166 | 4.3 | 7.8 | 0.00 | 0.19 | 0.00 | 96 | 1021.7 |
| 20260507043004 | 49 | 181 | 6.1 | 7.8 | 0.00 | 0.19 | 0.00 | 96 | 1021.6 |
| 20260507042005 | 49 | 187 | 7.0 | 9.6 | 0.00 | 0.19 | 0.00 | 96 | 1021.3 |
| 20260507041005 | 49 | 181 | 7.8 | 9.6 | 0.00 | 0.19 | 0.00 | 96 | 1021.2 |
| 20260507040005 | 49 | 186 | 7.0 | 9.6 | 0.00 | 0.19 | 0.00 | 96 | 1021.4 |
| 20260507035005 | 49 | 184 | 7.8 | 9.6 | 0.00 | 0.19 | 0.00 | 96 | 1021.3 |
| 20260507034005 | 49 | 182 | 7.0 | 9.6 | 0.00 | 0.19 | 0.00 | 96 | 1021.1 |
| 20260507032005 | 50 | 183 | 7.0 | 7.8 | 0.00 | 0.19 | 0.00 | 94 | 1021.3 |
| 20260507030004 | 50 | 195 | 6.1 | 7.8 | 0.00 | 0.19 | 0.00 | 93 | 1021.6 |
| 20260507025004 | 50 | 183 | 7.0 | 9.6 | 0.00 | 0.19 | 0.00 | 92 | 1021.4 |
| 20260507024005 | 51 | 183 | 7.0 | 9.6 | 0.00 | 0.19 | 0.00 | 91 | 1021.3 |
| 20260507022005 | 51 | 196 | 7.0 | 9.6 | 0.00 | 0.19 | 0.00 | 90 | 1021.3 |
| 20260507021005 | 51 | 188 | 6.1 | 9.6 | 0.00 | 0.19 | 0.00 | 89 | 1021.4 |
| 20260507020009 | 51 | 179 | 7.0 | 9.6 | 0.00 | 0.19 | 0.00 | 88 | 1021.5 |
| 20260507015005 | 51 | 151 | 7.0 | 7.8 | 0.00 | 0.19 | 0.00 | 89 | 1021.6 |
| 20260507014004 | 51 | 143 | 6.1 | 7.8 | 0.00 | 0.19 | 0.00 | 90 | 1021.6 |
| 20260507013004 | 50 | 167 | 5.2 | 7.0 | 0.00 | 0.19 | 0.00 | 92 | 1021.7 |
| 20260507012004 | 50 | 225 | 0.9 | 1.7 | 0.00 | 0.19 | 0.00 | 93 | 1021.7 |
| 20260507005005 | 49 | 127 | 0.9 | 6.1 | 0.00 | 0.19 | 0.00 | 94 | 1021.6 |
| 20260507004005 | 50 | 119 | 1.7 | 7.0 | 0.00 | 0.19 | 0.00 | 93 | 1021.6 |
| 20260507003005 | 50 | 80 | 1.7 | 14.8 | 0.00 | 0.19 | 0.00 | 94 | 1021.7 |
| 20260507002004 | 49 | 64 | 4.3 | 12.2 | 0.00 | 0.19 | 0.00 | 98 | 1021.8 |
| 20260507001004 | 49 | 22 | 8.7 | 11.3 | 0.00 | 0.19 | 0.00 | 99 | 1021.7 |
| 20260506235005 | 49 | 51 | 7.0 | 9.6 | 0.00 | 0.19 | 0.00 | 99 | 1022.0 |
| 20260506234004 | 49 | 47 | 6.1 | 7.0 | 0.00 | 0.19 | 0.00 | 99 | 1021.8 |
| 20260506233004 | 48 | 51 | 3.5 | 7.0 | 0.00 | 0.19 | 0.00 | 99 | 1022.0 |
| 20260506232004 | 49 | 0 | 0.0 | 3.5 | 0.00 | 0.19 | 0.00 | 99 | 1021.9 |
| 20260506231004 | 49 | 0 | 0.0 | 3.5 | 0.00 | 0.19 | 0.00 | 99 | 1021.8 |
| 20260506230004 | 50 | 229 | 1.7 | 3.5 | 0.00 | 0.19 | 0.00 | 95 | 1021.9 |
| 20260506225004 | 53 | 270 | 2.6 | 3.5 | 0.00 | 0.19 | 0.00 | 90 | 1021.6 |
| 20260506224004 | 53 | 147 | 1.7 | 5.2 | 0.00 | 0.19 | 0.00 | 78 | 1021.7 |
| 20260506223005 | 51 | 129 | 3.5 | 5.2 | 0.00 | 0.19 | 0.00 | 88 | 1021.8 |
| 20260506222005 | 50 | 328 | 1.7 | 3.5 | 0.00 | 0.19 | 0.00 | 97 | 1021.8 |
| 20260506221005 | 50 | 0 | 0.0 | 1.7 | 0.00 | 0.19 | 0.00 | 96 | 1021.9 |
| 20260506220009 | 50 | 155 | 1.7 | 3.5 | 0.00 | 0.19 | 0.00 | 95 | 1021.7 |
| 20260506215006 | 50 | 0 | 0.0 | 3.5 | 0.00 | 0.19 | 0.19 | 97 | 1021.8 |
| 20260506213004 | 50 | 79 | 3.5 | 13.0 | 0.00 | 0.20 | 0.19 | 99 | 1021.9 |
| 20260506212004 | 49 | 192 | 2.6 | 7.8 | 0.00 | 0.20 | 0.19 | 99 | 1021.6 |
| 20260506205004 | 49 | 134 | 0.9 | 7.0 | 0.00 | 0.20 | 0.19 | 99 | 1021.7 |
| 20260506204004 | 49 | 93 | 1.7 | 7.0 | 0.00 | 0.20 | 0.19 | 99 | 1021.9 |
| 20260506203005 | 49 | 48 | 3.5 | 5.2 | 0.00 | 0.20 | 0.19 | 99 | 1022.2 |
| 20260506202004 | 50 | 38 | 3.5 | 5.2 | 0.00 | 0.20 | 0.19 | 99 | 1022.1 |
| 20260506201004 | 50 | 352 | 2.6 | 3.5 | 0.00 | 0.21 | 0.19 | 99 | 1022.1 |
| 20260506200004 | 50 | 332 | 1.7 | 5.2 | 0.00 | 0.21 | 0.19 | 99 | 1022.0 |
| 20260506194004 | 50 | 349 | 2.6 | 3.5 | 0.00 | 0.21 | 0.19 | 99 | 1022.1 |
| 20260506193004 | 50 | 350 | 1.7 | 3.5 | 0.01 | 0.21 | 0.19 | 99 | 1022.1 |
| 20260506192004 | 50 | 338 | 1.7 | 3.5 | 0.01 | 0.21 | 0.19 | 99 | 1022.1 |
| 20260506191004 | 51 | 352 | 3.5 | 3.5 | 0.01 | 0.21 | 0.19 | 99 | 1022.0 |
| 20260506185004 | 50 | 23 | 3.5 | 6.1 | 0.01 | 0.21 | 0.19 | 99 | 1021.8 |
| 20260506184004 | 50 | 39 | 4.3 | 7.0 | 0.01 | 0.21 | 0.19 | 99 | 1021.8 |
| 20260506183004 | 50 | 36 | 3.5 | 9.6 | 0.00 | 0.20 | 0.18 | 99 | 1021.6 |
| 20260506182005 | 50 | 27 | 5.2 | 9.6 | 0.00 | 0.20 | 0.18 | 99 | 1021.4 |
| 20260506181004 | 51 | 30 | 7.0 | 9.6 | 0.00 | 0.20 | 0.18 | 99 | 1021.2 |
| 20260506180006 | 51 | 31 | 5.2 | 9.6 | 0.00 | 0.20 | 0.18 | 99 | 1021.4 |
| 20260506175004 | 51 | 15 | 4.3 | 7.0 | 0.00 | 0.20 | 0.18 | 99 | 1021.1 |